Torna al catalogo

KUIPER-00089

AttivoComunicazioniLEO
NORAD 64834·PAYLOAD·🇺🇸 United States

Lanciato Jul 16, 2025 da Cape Canaveral Space Force Station

Loading…

Prossimi Passaggi (prossime 24 ore)

TLE

AggiornatoSource: CelesTrak SupGP

Epoca: Sep 14, 2026, 21:44 UTC

1 64834C 25151U   26257.90600694 -.00047713  00000+0 -62456-2 0  2570
2 64834  51.8992 168.8824 0000776 102.7244 323.8511 14.79980209    11

Traccia KUIPER-00089 in tempo reale con AllMySat

Download on the App Store